IRIDIUM 16

Satellite information

Favourite Embed

Satellite Type and Status

PAYLOADIN ORBIT

Key statistics

Satellite IRIDIUM 16 at a glance.

Uptime

10405

Days in orbit

Revolutions

≈ 14.4

Per day

Orbit

LEO

Low Earth Orbit

Inclination

86.4

Latest

Satellite identification and parameters

Extended collection of information and parameters for IRIDIUM 16.

Object identification

Identified? True

Debris? False

Object name: IRIDIUM 16

International designator: 1997-030F

Object number (NORAD): 24841

Object ID (CCSDS): 24841

Country: UNITED STATES OF AMERICA (US)

Current information (Y/N): Y

RCS size: LARGE

Orbital parameters

Period: 100.077 minutes

Inclination: 86.4032 deg

SMA: 7140.315 km

Apoapsis: 763.887 km

Periapsis: 760.474 km

RAAN: 130.5575 deg

Eccentricy: 0.000239

Argument of periapsis: 149.9736 deg

Mean anomaly: 210.16 deg

Mean motion: 14.38886922 rev/day

Mean motion (dot): 0.00000851 rev/day2

B* drag term: 0.00027019732 1/REarth

Two-line elements (TLE)

Creation date: Dec. 12, 2025, 10:14 a.m.

Reference frame: TEME

Reference center: EARTH

Epoch: Dec. 12, 2025, 3:57 a.m. UTC

TLE line 0: 0 IRIDIUM 16

TLE line 1: 1 24841U 97030F 25346.16487264 .00000851 00000-0 27020-3 0 9994

TLE line 2: 2 24841 86.4032 130.5575 0002390 149.9736 210.1600 14.38886922492593

Live tracking on map

Real-time ground track for satellite IRIDIUM 16.

In-orbit conjunctions

A list of the most updated potential collisions computed for object IRIDIUM 16.

Target Orbit TCA Probability of collision Miss distance Type
NOAA 16 DEB SSO 2025-09-22 19:17:49 0.005871 62.0 (m) DEBRIS
NOAA 16 DEB SSO 2025-09-17 22:59:06 0.0001066116 843.0 (m) DEBRIS
CZ-6A DEB SSO 2025-09-17 19:32:03 0.000893416 181.0 (m) DEBRIS
CZ-6A DEB SSO 2025-09-12 02:40:01 0.002180519 132.0 (m) DEBRIS
CZ-6A DEB SSO 2025-04-27 15:33:54 0.0001351963 262.0 (m) DEBRIS

Associated space launch

Iridium provides global mobile telecommunications services using a constellation of 66 low earth orbit satellites in a 86.4° inclined orbit. Although 77 satellites were originally envisioned for the system and spawned the name based on the 77th element in the periodic table, the system has been scaled back. Motorola's Satellite Communications Group designed and manufactured the Iridium satellites with Lockheed Martin providing the LM-700A spacecraft buses.

IRIDIUM 16 was lifted into orbit during the mission ‘Proton-K/17S40 | Iridium 09 to 14 & Iridium 16’, on board a Proton-K/17S40 space rocket.

The launch took place on June 18, 1997, 2:02 p.m. from 81/23 (81L).

For more information about the launch, click the button.

Launch to space Proton-K/17S40 | Iridium 09 to 14 & Iridium 16
Proton-K/17S40 | Iridium 09 to 14 & Iridium 16

Agency: N/A

Status: Launch Successful

Launch date: June 18, 1997, 2:02 p.m. UTC

Rocket: Proton-K/17S40

Launch pad: 81/23 (81L)

Location: Baikonur Cosmodrome, Republic of Kazakhstan

...

Latest news about this satellite

There are no fresh news available about this satellite. Check back as we update our databases every day.


Newsletter sign-up

Weekly statistics, charts and insights to help you stay on top of the space industry.